Location: Piotrkow Trybunalski
(51.4000°N, 19.6830°E)
Time: 05:25:30
(UTC+02:00)

A-11 Canister half - Pass Details

Date: 04 February 2023
Orbit: 1526 x 1682 km, 47.3° (Epoch: 25 March)

Event Time Altitude Azimuth Distance (km) Brightness Sun altitude
Rises 03:29:38 0° 185° (S) 4,673 - -35.1°
Exits shadow 03:32:28 - 175° (S) 3,988 11.0 -34.7°
Reaches altitude 10° 03:33:54 10° 169° (SSE) 3,686 10.9 -34.5°
Maximum altitude 03:39:37 18° 129° (SE) 3,080 10.8 -33.6°
Drops below altitude 10° 03:45:21 10° 91° (E) 3,708 11.8 -32.7°
Sets 03:49:37 0° 74° (ENE) 4,710 12.7 -32.1°
